TimeMST,TemperatureF,Dew PointF,Humidity,Sea Level PressureIn,VisibilityMPH,Wind Direction,Wind SpeedMPH,Gust SpeedMPH,PrecipitationIn,Events,Conditions,WindDirDegrees,DateUTC
12:53 AM,32.0,26.1,79,30.36,10.0,ENE,6.9,-,N/A,,Clear,70,2013-11-27 07:53:00
1:53 AM,34.0,27.0,75,30.34,10.0,ENE,11.5,-,N/A,,Clear,70,2013-11-27 08:53:00
2:53 AM,33.1,25.0,72,30.33,10.0,ENE,10.4,-,N/A,,Clear,60,2013-11-27 09:53:00
3:53 AM,30.9,25.0,79,30.32,10.0,ENE,10.4,-,N/A,,Clear,60,2013-11-27 10:53:00
4:53 AM,28.9,24.1,82,30.33,10.0,ENE,6.9,-,N/A,,Clear,70,2013-11-27 11:53:00
5:53 AM,30.0,24.1,79,30.34,10.0,ENE,8.1,-,N/A,,Clear,70,2013-11-27 12:53:00
6:53 AM,30.9,24.1,76,30.36,10.0,East,6.9,-,N/A,,Clear,90,2013-11-27 13:53:00
7:53 AM,33.1,26.1,75,30.36,10.0,East,8.1,-,N/A,,Clear,80,2013-11-27 14:53:00
8:53 AM,35.1,27.0,72,30.38,10.0,ENE,9.2,-,N/A,,Clear,70,2013-11-27 15:53:00
9:53 AM,37.9,28.0,68,30.36,10.0,ENE,10.4,-,N/A,,Clear,70,2013-11-27 16:53:00
10:53 AM,42.1,28.0,58,30.33,10.0,East,12.7,-,N/A,,Clear,80,2013-11-27 17:53:00
11:53 AM,42.1,28.9,60,30.28,10.0,ENE,11.5,-,N/A,,Clear,70,2013-11-27 18:53:00
12:53 PM,45.0,27.0,49,30.23,10.0,East,10.4,-,N/A,,Clear,80,2013-11-27 19:53:00
1:53 PM,45.0,25.0,46,30.19,10.0,East,15.0,-,N/A,,Clear,90,2013-11-27 20:53:00
2:53 PM,45.0,25.0,46,30.18,10.0,East,11.5,-,N/A,,Clear,90,2013-11-27 21:53:00
3:53 PM,45.0,26.1,48,30.17,10.0,East,11.5,-,N/A,,Clear,90,2013-11-27 22:53:00
4:53 PM,42.1,28.9,60,30.19,10.0,ENE,8.1,-,N/A,,Clear,70,2013-11-27 23:53:00
5:53 PM,39.0,30.0,70,30.20,10.0,ENE,6.9,-,N/A,,Clear,60,2013-11-28 00:53:00
6:53 PM,37.0,30.0,76,30.22,10.0,NE,6.9,-,N/A,,Clear,40,2013-11-28 01:53:00
7:53 PM,35.1,28.0,76,30.22,10.0,NE,6.9,-,N/A,,Clear,50,2013-11-28 02:53:00
8:53 PM,32.0,26.1,79,30.22,10.0,East,3.5,-,N/A,,Clear,80,2013-11-28 03:53:00
9:53 PM,30.9,26.1,82,30.20,10.0,ENE,3.5,-,N/A,,Clear,70,2013-11-28 04:53:00
10:53 PM,30.0,25.0,82,30.19,10.0,ESE,4.6,-,N/A,,Clear,110,2013-11-28 05:53:00
11:53 PM,30.0,24.1,79,30.20,10.0,Calm,Calm,-,N/A,,Clear,0,2013-11-28 06:53:00